Time,TemperatureF,DewpointF,PressureIn,WindDirection,WindDirectionDegrees,WindSpeedMPH,WindSpeedGustMPH,Humidity,HourlyPrecipIn,Conditions,Clouds,dailyrainin,SolarRadiationWatts/m^2,SoftwareType,DateUTC
2013-08-31 00:01:00,81.7,71.8,29.70,SW,236,3.0,12.0,72,0.00,,,0.00,0,Wunderground v.1.15,2013-08-31 04:01:00,
2013-08-31 00:03:00,81.6,71.7,29.70,SW,233,2.0,12.0,72,0.00,,,0.00,0,Wunderground v.1.15,2013-08-31 04:03:00,
2013-08-31 00:04:00,81.6,71.7,29.70,WSW,256,2.0,12.0,72,0.00,,,0.00,0,Wunderground v.1.15,2013-08-31 04:04:00,
2013-08-31 00:07:00,81.4,72.0,29.71,West,259,0.0,-999.0,73,-99.99,,,0.00,,weatherlink.com 1.10,2013-08-31 04:07:00,
2013-08-31 00:12:00,81.4,71.9,29.71,West,265,0.0,12.0,73,0.00,,,0.00,0,Wunderground v.1.15,2013-08-31 04:12:00,
2013-08-31 00:13:00,81.3,71.8,29.71,West,265,0.0,12.0,73,0.00,,,0.00,0,Wunderground v.1.15,2013-08-31 04:13:00,
2013-08-31 00:19:00,81.2,71.7,29.71,West,265,0.0,12.0,73,0.00,,,0.00,0,Wunderground v.1.15,2013-08-31 04:19:00,
2013-08-31 00:25:00,81.1,71.6,29.72,West,265,0.0,12.0,73,0.00,,,0.00,0,Wunderground v.1.15,2013-08-31 04:25:00,
2013-08-31 00:31:00,80.9,71.8,29.72,West,265,0.0,12.0,74,0.00,,,0.00,0,Wunderground v.1.15,2013-08-31 04:31:00,
2013-08-31 00:37:00,80.6,72.0,29.72,SW,235,0.0,-999.0,75,-99.99,,,0.00,,weatherlink.com 1.10,2013-08-31 04:37:00,
2013-08-31 00:42:00,80.5,71.4,29.72,West,260,0.0,12.0,74,0.00,,,0.00,0,Wunderground v.1.15,2013-08-31 04:42:00,
2013-08-31 00:48:00,80.5,71.4,29.72,WSW,246,0.0,12.0,74,0.00,,,0.00,0,Wunderground v.1.15,2013-08-31 04:48:00,
2013-08-31 00:54:00,80.4,71.3,29.72,SSW,206,0.0,12.0,74,0.00,,,0.00,0,Wunderground v.1.15,2013-08-31 04:54:00,
2013-08-31 01:00:00,80.3,71.3,29.73,SW,217,2.0,8.0,74,0.00,,,0.00,0,Wunderground v.1.15,2013-08-31 05:00:00,
2013-08-31 01:06:00,80.5,71.0,29.72,SSW,204,4.0,8.0,73,0.00,,,0.00,0,Wunderground v.1.15,2013-08-31 05:06:00,
2013-08-31 01:11:00,80.6,71.1,29.72,WSW,244,3.0,5.0,73,0.00,,,0.00,0,Wunderground v.1.15,2013-08-31 05:11:00,
2013-08-31 01:17:00,80.7,71.2,29.72,West,262,3.0,9.0,73,0.00,,,0.00,0,Wunderground v.1.15,2013-08-31 05:17:00,
2013-08-31 01:23:00,80.7,71.0,29.71,WNW,282,2.0,-999.0,73,-99.99,,,0.00,,weatherlink.com 1.10,2013-08-31 05:23:00,
2013-08-31 01:28:00,80.6,71.1,29.71,West,270,3.0,9.0,73,0.00,,,0.00,0,Wunderground v.1.15,2013-08-31 05:28:00,
2013-08-31 01:33:00,80.5,71.4,29.71,West,273,4.0,9.0,74,0.00,,,0.00,0,Wunderground v.1.15,2013-08-31 05:33:00,
2013-08-31 01:39:00,80.3,71.3,29.70,West,281,5.0,9.0,74,0.00,,,0.00,0,Wunderground v.1.15,2013-08-31 05:39:00,
2013-08-31 01:45:00,80.1,71.1,29.70,WNW,299,3.0,9.0,74,0.00,,,0.00,0,Wunderground v.1.15,2013-08-31 05:45:00,
2013-08-31 01:51:00,79.8,71.0,29.70,NW,318,6.0,-999.0,74,-99.99,,,0.00,,weatherlink.com 1.10,2013-08-31 05:51:00,
2013-08-31 01:56:00,79.7,71.1,29.70,West,276,3.0,7.0,75,0.00,,,0.00,0,Wunderground v.1.15,2013-08-31 05:56:00,
2013-08-31 02:02:00,79.3,70.7,29.71,NW,307,3.0,14.0,75,0.00,,,0.00,0,Wunderground v.1.15,2013-08-31 06:02:00,
2013-08-31 02:08:00,79.2,70.6,29.71,NW,325,4.0,14.0,75,0.00,,,0.00,0,Wunderground v.1.15,2013-08-31 06:08:00,
2013-08-31 02:13:00,79.1,70.5,29.72,West,267,6.0,14.0,75,0.00,,,0.00,0,Wunderground v.1.15,2013-08-31 06:13:00,
2013-08-31 02:19:00,78.8,70.6,29.72,WNW,290,4.0,14.0,76,0.00,,,0.00,0,Wunderground v.1.15,2013-08-31 06:19:00,
2013-08-31 02:25:00,78.5,70.3,29.72,West,277,4.0,14.0,76,0.00,,,0.00,0,Wunderground v.1.15,2013-08-31 06:25:00,
2013-08-31 02:31:00,78.2,70.4,29.72,WNW,299,4.0,14.0,77,0.00,,,0.00,0,Wunderground v.1.15,2013-08-31 06:31:00,
2013-08-31 02:36:00,77.8,70.0,29.73,NW,320,9.0,-999.0,78,-99.99,,,0.00,,weatherlink.com 1.10,2013-08-31 06:36:00,
2013-08-31 02:41:00,77.5,70.5,29.73,West,276,5.0,14.0,79,0.00,,,0.00,0,Wunderground v.1.15,2013-08-31 06:41:00,
2013-08-31 02:47:00,77.2,70.2,29.73,West,277,4.0,14.0,79,0.00,,,0.00,0,Wunderground v.1.15,2013-08-31 06:47:00,
2013-08-31 02:53:00,76.9,70.3,29.73,WNW,286,2.0,14.0,80,0.00,,,0.00,0,Wunderground v.1.15,2013-08-31 06:53:00,
2013-08-31 02:58:00,76.6,70.3,29.73,WNW,293,2.0,14.0,81,0.00,,,0.00,0,Wunderground v.1.15,2013-08-31 06:58:00,
2013-08-31 03:04:00,76.4,70.5,29.73,West,279,3.0,17.0,82,0.00,,,0.00,0,Wunderground v.1.15,2013-08-31 07:04:00,
2013-08-31 03:09:00,76.2,70.3,29.73,NW,310,3.0,17.0,82,0.00,,,0.00,0,Wunderground v.1.15,2013-08-31 07:09:00,
2013-08-31 03:15:00,75.9,70.4,29.73,West,281,3.0,17.0,83,0.00,,,0.00,0,Wunderground v.1.15,2013-08-31 07:15:00,
2013-08-31 03:21:00,75.7,71.0,29.73,West,280,7.0,-999.0,84,-99.99,,,0.00,,weatherlink.com 1.10,2013-08-31 07:21:00,
2013-08-31 03:26:00,75.5,70.7,29.73,NW,310,2.0,17.0,85,0.00,,,0.00,0,Wunderground v.1.15,2013-08-31 07:26:00,
2013-08-31 03:32:00,75.3,70.5,29.73,WNW,293,2.0,17.0,85,0.00,,,0.00,0,Wunderground v.1.15,2013-08-31 07:32:00,
2013-08-31 03:37:00,75.1,70.6,29.73,NW,321,1.0,17.0,86,0.00,,,0.00,0,Wunderground v.1.15,2013-08-31 07:37:00,
2013-08-31 03:43:00,74.9,70.4,29.73,North,360,1.0,17.0,86,0.00,,,0.00,0,Wunderground v.1.15,2013-08-31 07:43:00,
2013-08-31 03:49:00,74.9,70.8,29.73,WNW,290,2.0,17.0,87,0.00,,,0.00,0,Wunderground v.1.15,2013-08-31 07:49:00,
2013-08-31 03:55:00,74.6,70.5,29.73,WNW,284,1.0,17.0,87,0.00,,,0.00,0,Wunderground v.1.15,2013-08-31 07:55:00,
2013-08-31 04:00:00,74.5,70.7,29.73,NW,321,1.0,1.0,88,0.00,,,0.00,0,Wunderground v.1.15,2013-08-31 08:00:00,
2013-08-31 04:06:00,74.4,70.6,29.73,NW,319,1.0,10.0,88,0.00,,,0.00,0,Wunderground v.1.15,2013-08-31 08:06:00,
2013-08-31 04:11:00,74.2,70.7,29.73,NNW,336,1.0,10.0,89,0.00,,,0.00,0,Wunderground v.1.15,2013-08-31 08:11:00,
2013-08-31 04:17:00,74.1,70.6,29.73,WNW,299,2.0,10.0,89,0.00,,,0.00,0,Wunderground v.1.15,2013-08-31 08:17:00,
2013-08-31 04:23:00,74.1,70.6,29.73,NW,321,2.0,10.0,89,0.00,,,0.00,0,Wunderground v.1.15,2013-08-31 08:23:00,
2013-08-31 04:29:00,74.0,70.6,29.73,NW,325,2.0,10.0,89,0.00,,,0.00,0,Wunderground v.1.15,2013-08-31 08:29:00,
2013-08-31 04:34:00,73.9,70.8,29.73,NW,313,1.0,10.0,90,0.00,,,0.00,0,Wunderground v.1.15,2013-08-31 08:34:00,
2013-08-31 04:41:00,73.8,70.7,29.72,NW,310,1.0,10.0,90,0.00,,,0.00,0,Wunderground v.1.15,2013-08-31 08:41:00,
2013-08-31 04:47:00,73.7,70.6,29.72,WNW,302,1.0,10.0,90,0.00,,,0.00,0,Wunderground v.1.15,2013-08-31 08:47:00,
2013-08-31 04:52:00,73.6,70.8,29.72,NW,305,1.0,10.0,91,0.00,,,0.00,0,Wunderground v.1.15,2013-08-31 08:52:00,
2013-08-31 04:57:00,73.6,70.8,29.73,WNW,295,2.0,10.0,91,0.00,,,0.00,0,Wunderground v.1.15,2013-08-31 08:57:00,
2013-08-31 05:03:00,73.5,70.7,29.73,West,280,1.0,7.0,91,0.00,,,0.00,0,Wunderground v.1.15,2013-08-31 09:03:00,
2013-08-31 05:08:00,73.5,70.7,29.73,NW,314,1.0,7.0,91,0.00,,,0.00,0,Wunderground v.1.15,2013-08-31 09:08:00,
2013-08-31 05:14:00,73.4,70.6,29.73,NW,307,1.0,7.0,91,0.00,,,0.00,0,Wunderground v.1.15,2013-08-31 09:14:00,
2013-08-31 05:20:00,73.4,70.6,29.73,NW,304,1.0,1.0,91,0.00,,,0.00,0,Wunderground v.1.15,2013-08-31 09:20:00,
2013-08-31 05:25:00,73.3,70.8,29.73,WNW,302,1.0,7.0,92,0.00,,,0.00,0,Wunderground v.1.15,2013-08-31 09:25:00,
2013-08-31 05:31:00,73.3,70.8,29.73,West,274,1.0,7.0,92,0.00,,,0.00,0,Wunderground v.1.15,2013-08-31 09:31:00,
2013-08-31 05:36:00,73.3,71.0,29.73,WNW,290,0.0,-999.0,92,-99.99,,,0.00,,weatherlink.com 1.10,2013-08-31 09:36:00,
2013-08-31 05:41:00,73.3,70.8,29.73,NW,307,1.0,7.0,92,0.00,,,0.00,0,Wunderground v.1.15,2013-08-31 09:41:00,
2013-08-31 05:46:00,73.2,70.7,29.73,NW,307,1.0,7.0,92,0.00,,,0.00,0,Wunderground v.1.15,2013-08-31 09:46:00,
2013-08-31 05:52:00,73.1,70.6,29.73,WNW,286,0.0,7.0,92,0.00,,,0.00,0,Wunderground v.1.15,2013-08-31 09:52:00,
2013-08-31 05:58:00,73.0,70.5,29.73,WNW,298,0.0,7.0,92,0.00,,,0.00,0,Wunderground v.1.15,2013-08-31 09:58:00,
2013-08-31 06:03:00,73.1,70.6,29.74,WNW,300,0.0,6.0,92,0.00,,,0.00,0,Wunderground v.1.15,2013-08-31 10:03:00,
2013-08-31 06:09:00,73.1,70.6,29.74,NW,321,1.0,6.0,92,0.00,,,0.00,0,Wunderground v.1.15,2013-08-31 10:09:00,
2013-08-31 06:15:00,73.1,70.6,29.74,NW,314,1.0,6.0,92,0.00,,,0.00,0,Wunderground v.1.15,2013-08-31 10:15:00,
2013-08-31 06:21:00,73.1,71.0,29.74,WNW,287,0.0,-999.0,92,-99.99,,,0.00,,weatherlink.com 1.10,2013-08-31 10:21:00,
2013-08-31 06:26:00,73.0,70.5,29.74,West,271,1.0,6.0,92,0.00,,,0.00,0,Wunderground v.1.15,2013-08-31 10:26:00,
2013-08-31 06:31:00,72.9,70.4,29.74,WNW,298,0.0,6.0,92,0.00,,,0.00,0,Wunderground v.1.15,2013-08-31 10:31:00,
2013-08-31 06:37:00,72.8,70.7,29.74,WNW,298,0.0,6.0,93,0.00,,,0.00,0,Wunderground v.1.15,2013-08-31 10:37:00,
2013-08-31 06:43:00,72.7,70.6,29.74,WNW,300,0.0,6.0,93,0.00,,,0.00,0,Wunderground v.1.15,2013-08-31 10:43:00,
2013-08-31 06:49:00,72.6,70.5,29.74,WNW,298,0.0,6.0,93,0.00,,,0.00,0,Wunderground v.1.15,2013-08-31 10:49:00,
2013-08-31 06:55:00,72.5,70.4,29.74,WNW,301,0.0,6.0,93,0.00,,,0.00,0,Wunderground v.1.15,2013-08-31 10:55:00,
2013-08-31 07:00:00,72.4,70.3,29.74,WNW,302,0.0,0.0,93,0.00,,,0.00,0,Wunderground v.1.15,2013-08-31 11:00:00,
2013-08-31 07:06:00,72.3,70.0,29.74,WNW,302,0.0,-999.0,93,-99.99,,,0.00,,weatherlink.com 1.10,2013-08-31 11:06:00,
2013-08-31 07:12:00,72.3,70.2,29.74,WNW,302,0.0,5.0,93,0.00,,,0.00,7,Wunderground v.1.15,2013-08-31 11:12:00,
2013-08-31 07:17:00,72.2,70.1,29.74,WNW,302,0.0,5.0,93,0.00,,,0.00,11,Wunderground v.1.15,2013-08-31 11:17:00,
2013-08-31 07:23:00,72.2,70.1,29.75,WNW,302,0.0,5.0,93,0.00,,,0.00,14,Wunderground v.1.15,2013-08-31 11:23:00,
2013-08-31 07:29:00,72.3,70.2,29.75,West,268,0.0,5.0,93,0.00,,,0.00,19,Wunderground v.1.15,2013-08-31 11:29:00,
2013-08-31 07:35:00,72.3,70.2,29.75,West,265,0.0,5.0,93,0.00,,,0.00,28,Wunderground v.1.15,2013-08-31 11:35:00,
2013-08-31 07:40:00,72.4,70.3,29.75,West,265,0.0,5.0,93,0.00,,,0.00,37,Wunderground v.1.15,2013-08-31 11:40:00,
2013-08-31 07:46:00,72.4,70.3,29.75,West,265,0.0,5.0,93,0.00,,,0.00,47,Wunderground v.1.15,2013-08-31 11:46:00,
2013-08-31 07:52:00,72.5,70.0,29.75,West,265,0.0,-999.0,93,-99.99,,,0.00,,weatherlink.com 1.10,2013-08-31 11:52:00,
2013-08-31 07:57:00,72.5,70.4,29.75,SW,234,0.0,5.0,93,0.00,,,0.00,74,Wunderground v.1.15,2013-08-31 11:57:00,
2013-08-31 08:03:00,72.5,70.4,29.76,SW,232,1.0,5.0,93,0.00,,,0.00,60,Wunderground v.1.15,2013-08-31 12:03:00,
2013-08-31 08:09:00,72.5,70.4,29.75,SW,232,0.0,5.0,93,0.00,,,0.00,72,Wunderground v.1.15,2013-08-31 12:09:00,
2013-08-31 08:14:00,72.6,70.5,29.75,West,277,0.0,5.0,93,0.00,,,0.00,97,Wunderground v.1.15,2013-08-31 12:14:00,
2013-08-31 08:20:00,72.7,70.6,29.75,WNW,298,0.0,5.0,93,0.00,,,0.00,100,Wunderground v.1.15,2013-08-31 12:20:00,
2013-08-31 08:26:00,72.8,70.7,29.76,WNW,298,0.0,5.0,93,0.00,,,0.00,49,Wunderground v.1.15,2013-08-31 12:26:00,
2013-08-31 08:31:00,72.9,70.8,29.76,NNW,347,0.0,5.0,93,0.00,,,0.00,67,Wunderground v.1.15,2013-08-31 12:31:00,
2013-08-31 08:37:00,72.7,71.0,29.76,NNW,334,0.0,-999.0,93,-99.99,,,0.00,,weatherlink.com 1.10,2013-08-31 12:37:00,
2013-08-31 08:42:00,72.7,70.6,29.77,NW,306,2.0,5.0,93,0.00,,,0.00,69,Wunderground v.1.15,2013-08-31 12:42:00,
2013-08-31 08:47:00,72.7,70.6,29.77,WNW,287,0.0,5.0,93,0.00,,,0.00,79,Wunderground v.1.15,2013-08-31 12:47:00,
2013-08-31 08:52:00,72.8,70.7,29.77,NNW,340,0.0,5.0,93,0.00,,,0.00,79,Wunderground v.1.15,2013-08-31 12:52:00,
2013-08-31 08:58:00,72.9,70.8,29.77,NNW,344,0.0,5.0,93,0.00,,,0.00,299,Wunderground v.1.15,2013-08-31 12:58:00,
2013-08-31 09:03:00,73.2,70.7,29.78,NNW,345,1.0,6.0,92,0.00,,,0.00,171,Wunderground v.1.15,2013-08-31 13:03:00,
2013-08-31 09:09:00,73.3,70.5,29.78,NW,314,0.0,6.0,91,0.00,,,0.00,113,Wunderground v.1.15,2013-08-31 13:09:00,
2013-08-31 09:14:00,73.4,70.6,29.78,NW,312,1.0,6.0,91,0.00,,,0.00,88,Wunderground v.1.15,2013-08-31 13:14:00,
2013-08-31 09:20:00,73.4,70.6,29.78,NNW,339,0.0,6.0,91,0.00,,,0.00,98,Wunderground v.1.15,2013-08-31 13:20:00,
2013-08-31 09:26:00,73.5,70.7,29.78,NW,304,0.0,6.0,91,0.00,,,0.00,69,Wunderground v.1.15,2013-08-31 13:26:00,
2013-08-31 09:31:00,73.6,70.8,29.79,NW,311,0.0,6.0,91,0.00,,,0.00,128,Wunderground v.1.15,2013-08-31 13:31:00,
2013-08-31 09:37:00,73.6,70.8,29.79,NW,311,0.0,6.0,91,0.00,,,0.00,97,Wunderground v.1.15,2013-08-31 13:37:00,
2013-08-31 09:43:00,73.8,71.0,29.78,NW,311,0.0,6.0,91,0.00,,,0.00,156,Wunderground v.1.15,2013-08-31 13:43:00,
2013-08-31 09:49:00,73.9,70.8,29.78,NNE,33,0.0,6.0,90,0.00,,,0.00,120,Wunderground v.1.15,2013-08-31 13:49:00,
2013-08-31 09:54:00,73.9,70.8,29.79,NE,34,0.0,6.0,90,0.00,,,0.00,88,Wunderground v.1.15,2013-08-31 13:54:00,
2013-08-31 10:00:00,73.8,70.4,29.79,NNE,33,0.0,0.0,89,0.00,,,0.00,163,Wunderground v.1.15,2013-08-31 14:00:00,
2013-08-31 10:06:00,74.1,71.0,29.79,NE,34,0.0,-999.0,90,-99.99,,,0.00,,weatherlink.com 1.10,2013-08-31 14:06:00,
2013-08-31 10:12:00,74.4,70.6,29.79,NNE,33,0.0,5.0,88,0.00,,,0.00,216,Wunderground v.1.15,2013-08-31 14:12:00,
2013-08-31 10:18:00,74.5,71.0,29.79,NE,34,0.0,5.0,89,0.00,,,0.00,279,Wunderground v.1.15,2013-08-31 14:18:00,
2013-08-31 10:24:00,75.0,71.9,29.79,NNE,33,0.0,5.0,90,0.00,,,0.00,524,Wunderground v.1.15,2013-08-31 14:24:00,
2013-08-31 10:29:00,75.4,70.9,29.79,NNE,33,0.0,5.0,86,0.00,,,0.00,193,Wunderground v.1.15,2013-08-31 14:29:00,
2013-08-31 10:35:00,75.5,70.7,29.79,NNE,20,0.0,5.0,85,0.00,,,0.00,520,Wunderground v.1.15,2013-08-31 14:35:00,
2013-08-31 10:41:00,75.9,70.4,29.79,NW,304,0.0,5.0,83,0.00,,,0.00,534,Wunderground v.1.15,2013-08-31 14:41:00,
2013-08-31 10:47:00,76.4,70.9,29.79,NNW,338,0.0,5.0,83,0.00,,,0.00,671,Wunderground v.1.15,2013-08-31 14:47:00,
2013-08-31 10:53:00,76.7,70.8,29.78,NNE,30,1.0,5.0,82,0.00,,,0.00,417,Wunderground v.1.15,2013-08-31 14:53:00,
2013-08-31 10:59:00,77.0,70.7,29.78,NNE,30,0.0,5.0,81,0.00,,,0.00,650,Wunderground v.1.15,2013-08-31 14:59:00,
2013-08-31 11:05:00,77.4,70.7,29.78,SW,226,0.0,2.0,80,0.00,,,0.00,385,Wunderground v.1.15,2013-08-31 15:05:00,
2013-08-31 11:11:00,77.7,71.0,29.78,NNW,333,0.0,2.0,80,0.00,,,0.00,545,Wunderground v.1.15,2013-08-31 15:11:00,
2013-08-31 11:16:00,78.0,70.6,29.78,NW,325,0.0,2.0,78,0.00,,,0.00,466,Wunderground v.1.15,2013-08-31 15:16:00,
2013-08-31 11:21:00,78.1,71.0,29.78,NNW,338,0.0,-999.0,78,-99.99,,,0.00,,weatherlink.com 1.10,2013-08-31 15:21:00,
2013-08-31 11:27:00,78.4,71.0,29.78,West,281,0.0,2.0,78,0.00,,,0.00,647,Wunderground v.1.15,2013-08-31 15:27:00,
2013-08-31 11:33:00,78.9,70.7,29.78,NNW,346,0.0,2.0,76,0.00,,,0.00,652,Wunderground v.1.15,2013-08-31 15:33:00,
2013-08-31 11:39:00,78.7,70.5,29.77,NNE,17,0.0,2.0,76,0.00,,,0.00,679,Wunderground v.1.15,2013-08-31 15:39:00,
2013-08-31 11:45:00,79.0,71.2,29.78,WSW,251,0.0,2.0,77,0.00,,,0.00,796,Wunderground v.1.15,2013-08-31 15:45:00,
2013-08-31 11:51:00,79.6,71.0,29.78,NW,313,1.0,-999.0,75,-99.99,,,0.00,,weatherlink.com 1.10,2013-08-31 15:51:00,
2013-08-31 11:56:00,79.8,70.8,29.78,West,275,0.0,2.0,74,0.00,,,0.00,429,Wunderground v.1.15,2013-08-31 15:56:00,
2013-08-31 12:01:00,80.0,71.4,29.78,West,265,1.0,5.0,75,0.00,,,0.00,758,Wunderground v.1.15,2013-08-31 16:01:00,
2013-08-31 12:07:00,80.4,71.0,29.78,SW,229,0.0,-999.0,72,-99.99,,,0.00,,weatherlink.com 1.10,2013-08-31 16:07:00,
2013-08-31 12:12:00,80.6,71.1,29.78,NW,306,0.0,5.0,73,0.00,,,0.00,332,Wunderground v.1.15,2013-08-31 16:12:00,
2013-08-31 12:18:00,80.7,70.8,29.78,WNW,303,0.0,5.0,72,0.00,,,0.00,336,Wunderground v.1.15,2013-08-31 16:18:00,
2013-08-31 12:24:00,80.8,70.9,29.78,NW,311,1.0,5.0,72,0.00,,,0.00,735,Wunderground v.1.15,2013-08-31 16:24:00,
2013-08-31 12:29:00,81.1,71.2,29.77,WNW,301,1.0,5.0,72,0.00,,,0.00,812,Wunderground v.1.15,2013-08-31 16:29:00,
2013-08-31 12:35:00,81.4,71.5,29.77,West,279,0.0,5.0,72,0.00,,,0.00,867,Wunderground v.1.15,2013-08-31 16:35:00,
2013-08-31 12:41:00,81.8,71.1,29.77,NNW,342,0.0,5.0,70,0.00,,,0.00,856,Wunderground v.1.15,2013-08-31 16:41:00,
2013-08-31 12:47:00,81.8,71.5,29.77,West,277,1.0,5.0,71,0.00,,,0.00,970,Wunderground v.1.15,2013-08-31 16:47:00,
2013-08-31 12:52:00,82.2,72.0,29.77,NNW,339,0.0,-999.0,70,-99.99,,,0.00,,weatherlink.com 1.10,2013-08-31 16:52:00,
2013-08-31 12:58:00,82.0,70.8,29.76,West,268,1.0,5.0,69,0.00,,,0.00,378,Wunderground v.1.15,2013-08-31 16:58:00,
2013-08-31 13:04:00,81.9,70.7,29.77,NW,305,2.0,6.0,69,0.00,,,0.00,350,Wunderground v.1.15,2013-08-31 17:04:00,
2013-08-31 13:10:00,82.1,70.9,29.76,NW,322,2.0,2.0,69,0.00,,,0.00,698,Wunderground v.1.15,2013-08-31 17:10:00,
2013-08-31 13:15:00,82.2,71.0,29.76,West,273,2.0,6.0,69,0.00,,,0.00,336,Wunderground v.1.15,2013-08-31 17:15:00,
2013-08-31 13:20:00,82.5,70.4,29.76,WSW,246,2.0,10.0,67,0.00,,,0.00,325,Wunderground v.1.15,2013-08-31 17:20:00,
2013-08-31 13:25:00,82.5,70.9,29.76,West,267,4.0,10.0,68,0.00,,,0.00,360,Wunderground v.1.15,2013-08-31 17:25:00,
2013-08-31 13:31:00,82.6,71.0,29.76,WSW,258,4.0,6.0,68,0.00,,,0.00,374,Wunderground v.1.15,2013-08-31 17:31:00,
2013-08-31 13:37:00,83.1,71.4,29.76,WNW,287,3.0,7.0,68,0.00,,,0.00,791,Wunderground v.1.15,2013-08-31 17:37:00,
2013-08-31 13:43:00,83.1,71.0,29.76,SW,225,2.0,7.0,67,0.00,,,0.00,295,Wunderground v.1.15,2013-08-31 17:43:00,
2013-08-31 13:49:00,82.7,71.1,29.76,WSW,256,4.0,9.0,68,0.00,,,0.00,323,Wunderground v.1.15,2013-08-31 17:49:00,
2013-08-31 13:55:00,82.4,71.2,29.76,WNW,290,4.0,10.0,69,0.00,,,0.00,357,Wunderground v.1.15,2013-08-31 17:55:00,
2013-08-31 14:00:00,82.4,71.6,29.76,NW,319,2.0,2.0,70,0.00,,,0.00,364,Wunderground v.1.15,2013-08-31 18:00:00,
2013-08-31 14:06:00,82.9,71.3,29.76,NW,306,1.0,13.0,68,0.00,,,0.00,318,Wunderground v.1.15,2013-08-31 18:06:00,
2013-08-31 14:11:00,82.7,71.5,29.76,WNW,303,1.0,13.0,69,0.00,,,0.00,306,Wunderground v.1.15,2013-08-31 18:11:00,
2013-08-31 14:17:00,82.6,71.4,29.76,NW,306,1.0,13.0,69,0.00,,,0.00,290,Wunderground v.1.15,2013-08-31 18:17:00,
2013-08-31 14:23:00,82.5,71.3,29.76,NW,325,1.0,13.0,69,0.00,,,0.00,281,Wunderground v.1.15,2013-08-31 18:23:00,
2013-08-31 14:28:00,82.4,71.6,29.76,West,275,1.0,13.0,70,0.00,,,0.00,278,Wunderground v.1.15,2013-08-31 18:28:00,
2013-08-31 14:34:00,82.2,71.4,29.76,NW,309,2.0,13.0,70,0.00,,,0.00,281,Wunderground v.1.15,2013-08-31 18:34:00,
2013-08-31 14:40:00,82.1,71.3,29.76,WNW,299,1.0,13.0,70,0.00,,,0.00,295,Wunderground v.1.15,2013-08-31 18:40:00,
2013-08-31 14:46:00,82.1,71.3,29.76,WNW,302,1.0,13.0,70,0.00,,,0.00,311,Wunderground v.1.15,2013-08-31 18:46:00,
2013-08-31 14:52:00,82.3,72.0,29.76,West,260,6.0,-999.0,70,-99.99,,,0.00,,weatherlink.com 1.10,2013-08-31 18:52:00,
2013-08-31 14:57:00,82.3,71.5,29.76,WNW,293,1.0,13.0,70,0.00,,,0.00,362,Wunderground v.1.15,2013-08-31 18:57:00,
2013-08-31 15:02:00,82.5,71.7,29.76,WNW,288,1.0,7.0,70,0.00,,,0.00,345,Wunderground v.1.15,2013-08-31 19:02:00,
2013-08-31 15:08:00,82.7,71.5,29.76,NW,325,1.0,7.0,69,0.00,,,0.00,352,Wunderground v.1.15,2013-08-31 19:08:00,
2013-08-31 15:13:00,82.6,71.8,29.76,NW,325,0.0,7.0,70,0.00,,,0.00,306,Wunderground v.1.15,2013-08-31 19:13:00,
2013-08-31 15:19:00,82.8,72.0,29.76,SW,219,0.0,7.0,70,0.00,,,0.00,281,Wunderground v.1.15,2013-08-31 19:19:00,
2013-08-31 15:25:00,82.9,72.1,29.75,SW,229,0.0,7.0,70,0.00,,,0.00,290,Wunderground v.1.15,2013-08-31 19:25:00,
2013-08-31 15:31:00,82.7,72.3,29.75,SW,216,1.0,7.0,71,0.00,,,0.00,253,Wunderground v.1.15,2013-08-31 19:31:00,
2013-08-31 15:36:00,82.7,72.3,29.75,SW,221,1.0,7.0,71,0.00,,,0.00,213,Wunderground v.1.15,2013-08-31 19:36:00,
2013-08-31 15:42:00,82.4,72.5,29.75,SSW,197,2.0,7.0,72,0.00,,,0.00,190,Wunderground v.1.15,2013-08-31 19:42:00,
2013-08-31 15:47:00,82.0,72.5,29.74,SW,232,3.0,7.0,73,0.00,,,0.00,186,Wunderground v.1.15,2013-08-31 19:47:00,
2013-08-31 15:52:00,81.8,72.3,29.74,SSW,200,4.0,7.0,73,0.00,,,0.00,183,Wunderground v.1.15,2013-08-31 19:52:00,
2013-08-31 15:58:00,81.5,72.4,29.74,SSW,195,3.0,8.0,74,0.00,,,0.00,199,Wunderground v.1.15,2013-08-31 19:58:00,
2013-08-31 16:04:00,81.4,72.3,29.74,SW,219,3.0,11.0,74,0.00,,,0.00,241,Wunderground v.1.15,2013-08-31 20:04:00,
2013-08-31 16:10:00,81.4,72.7,29.74,SW,221,5.0,7.0,75,0.00,,,0.00,380,Wunderground v.1.15,2013-08-31 20:10:00,
2013-08-31 16:15:00,81.3,72.6,29.74,WSW,249,6.0,7.0,75,0.00,,,0.00,355,Wunderground v.1.15,2013-08-31 20:15:00,
2013-08-31 16:21:00,81.3,73.0,29.74,SW,222,10.0,-999.0,76,-99.99,,,0.00,,weatherlink.com 1.10,2013-08-31 20:21:00,
2013-08-31 16:26:00,81.0,72.7,29.74,SSW,202,6.0,10.0,76,0.00,,,0.00,288,Wunderground v.1.15,2013-08-31 20:26:00,
2013-08-31 16:32:00,81.0,73.1,29.74,SSW,209,6.0,7.0,77,0.00,,,0.00,403,Wunderground v.1.15,2013-08-31 20:32:00,
2013-08-31 16:38:00,81.1,73.0,29.75,West,276,1.0,-999.0,76,-99.99,,,0.00,,weatherlink.com 1.10,2013-08-31 20:38:00,
2013-08-31 16:43:00,80.8,72.9,29.76,WSW,252,4.0,9.0,77,0.00,,,0.00,181,Wunderground v.1.15,2013-08-31 20:43:00,
2013-08-31 16:48:00,80.6,72.7,29.76,West,274,5.0,9.0,77,0.00,,,0.00,113,Wunderground v.1.15,2013-08-31 20:48:00,
2013-08-31 16:53:00,80.4,72.5,29.76,SW,222,4.0,7.0,77,0.00,,,0.00,53,Wunderground v.1.15,2013-08-31 20:53:00,
2013-08-31 16:59:00,80.0,72.5,29.75,SW,225,5.0,16.0,78,0.00,,,0.00,69,Wunderground v.1.15,2013-08-31 20:59:00,
2013-08-31 17:05:00,79.9,72.4,29.75,West,269,4.0,14.0,78,0.00,,,0.00,163,Wunderground v.1.15,2013-08-31 21:05:00,
2013-08-31 17:11:00,80.0,72.5,29.74,NW,309,3.0,14.0,78,0.00,,,0.00,172,Wunderground v.1.15,2013-08-31 21:11:00,
2013-08-31 17:17:00,80.1,71.8,29.74,WSW,247,2.0,14.0,76,0.00,,,0.00,156,Wunderground v.1.15,2013-08-31 21:17:00,
2013-08-31 17:22:00,80.0,71.8,29.73,WSW,252,3.0,14.0,76,0.00,,,0.00,130,Wunderground v.1.15,2013-08-31 21:22:00,
2013-08-31 17:28:00,80.0,72.1,29.73,WNW,287,4.0,14.0,77,0.00,,,0.00,107,Wunderground v.1.15,2013-08-31 21:28:00,
2013-08-31 17:34:00,79.9,71.7,29.70,West,276,2.0,14.0,76,0.00,,,0.00,109,Wunderground v.1.15,2013-08-31 21:34:00,
2013-08-31 17:40:00,79.9,71.7,29.70,North,360,0.0,14.0,76,0.00,,,0.00,118,Wunderground v.1.15,2013-08-31 21:40:00,
2013-08-31 17:45:00,79.8,71.9,29.70,NNE,13,0.0,14.0,77,0.00,,,0.00,113,Wunderground v.1.15,2013-08-31 21:45:00,
2013-08-31 17:51:00,79.6,72.0,29.70,NNE,17,0.0,-999.0,77,-99.99,,,0.00,,weatherlink.com 1.10,2013-08-31 21:51:00,
2013-08-31 17:57:00,79.6,71.8,29.70,NNE,17,0.0,14.0,77,0.00,,,0.00,91,Wunderground v.1.15,2013-08-31 21:57:00,
2013-08-31 18:03:00,79.6,72.1,29.69,NNE,17,0.0,13.0,78,0.00,,,0.00,90,Wunderground v.1.15,2013-08-31 22:03:00,
2013-08-31 18:08:00,79.5,72.0,29.69,NNE,28,0.0,13.0,78,0.00,,,0.00,91,Wunderground v.1.15,2013-08-31 22:08:00,
2013-08-31 18:14:00,79.6,72.5,29.69,NNE,28,0.0,13.0,79,0.00,,,0.00,109,Wunderground v.1.15,2013-08-31 22:14:00,
2013-08-31 18:20:00,79.7,72.2,29.69,NNE,28,0.0,13.0,78,0.00,,,0.00,120,Wunderground v.1.15,2013-08-31 22:20:00,
2013-08-31 18:26:00,79.9,72.4,29.70,NNE,28,0.0,13.0,78,0.00,,,0.00,200,Wunderground v.1.15,2013-08-31 22:26:00,
2013-08-31 18:31:00,80.5,72.6,29.69,NE,51,0.0,13.0,77,0.00,,,0.00,346,Wunderground v.1.15,2013-08-31 22:31:00,
2013-08-31 18:37:00,81.1,73.0,29.69,NE,51,0.0,-999.0,75,-99.99,,,0.00,,weatherlink.com 1.10,2013-08-31 22:37:00,
2013-08-31 18:42:00,81.0,72.3,29.69,NE,51,0.0,13.0,75,0.00,,,0.00,165,Wunderground v.1.15,2013-08-31 22:42:00,
2013-08-31 18:48:00,80.5,71.8,29.69,NE,51,0.0,13.0,75,0.00,,,0.00,90,Wunderground v.1.15,2013-08-31 22:48:00,
2013-08-31 18:54:00,80.2,72.3,29.69,SSW,198,1.0,13.0,77,0.00,,,0.00,51,Wunderground v.1.15,2013-08-31 22:54:00,
2013-08-31 19:00:00,79.3,71.8,29.69,SSW,195,1.0,1.0,78,0.00,,,0.00,40,Wunderground v.1.15,2013-08-31 23:00:00,
2013-08-31 19:06:00,78.8,71.7,29.69,SSW,196,0.0,1.0,79,0.00,,,0.00,32,Wunderground v.1.15,2013-08-31 23:06:00,
2013-08-31 19:12:00,78.2,71.5,29.70,SSW,196,0.0,0.0,80,0.00,,,0.00,33,Wunderground v.1.15,2013-08-31 23:12:00,
2013-08-31 19:17:00,78.0,71.3,29.70,SSW,196,0.0,0.0,80,0.00,,,0.00,32,Wunderground v.1.15,2013-08-31 23:17:00,
2013-08-31 19:23:00,78.0,71.7,29.70,SSW,196,0.0,0.0,81,0.00,,,0.00,30,Wunderground v.1.15,2013-08-31 23:23:00,
2013-08-31 19:29:00,77.9,71.6,29.70,SSW,196,0.0,0.0,81,0.00,,,0.00,30,Wunderground v.1.15,2013-08-31 23:29:00,
2013-08-31 19:34:00,77.8,71.5,29.70,SSW,195,0.0,0.0,81,0.00,,,0.00,26,Wunderground v.1.15,2013-08-31 23:34:00,
2013-08-31 19:40:00,77.7,71.4,29.71,SSW,196,0.0,0.0,81,0.00,,,0.00,23,Wunderground v.1.15,2013-08-31 23:40:00,
2013-08-31 19:46:00,77.5,71.6,29.71,SSW,195,0.0,0.0,82,0.00,,,0.00,19,Wunderground v.1.15,2013-08-31 23:46:00,
2013-08-31 19:52:00,77.5,71.6,29.72,SSW,195,0.0,0.0,82,0.00,,,0.00,16,Wunderground v.1.15,2013-08-31 23:52:00,
2013-08-31 19:58:00,77.4,71.5,29.72,SSW,195,0.0,0.0,82,0.00,,,0.00,12,Wunderground v.1.15,2013-08-31 23:58:00,
2013-08-31 20:03:00,77.4,71.5,29.73,SSW,196,0.0,0.0,82,0.00,,,0.00,16,Wunderground v.1.15,2013-09-01 00:03:00,
2013-08-31 20:08:00,77.4,71.5,29.73,SSW,196,0.0,0.0,82,0.00,,,0.00,12,Wunderground v.1.15,2013-09-01 00:08:00,
2013-08-31 20:14:00,77.4,71.5,29.73,SSW,198,0.0,0.0,82,0.00,,,0.00,5,Wunderground v.1.15,2013-09-01 00:14:00,
2013-08-31 20:20:00,77.3,71.4,29.73,SW,219,0.0,0.0,82,0.00,,,0.00,0,Wunderground v.1.15,2013-09-01 00:20:00,
2013-08-31 20:26:00,77.2,71.3,29.74,WSW,246,0.0,0.0,82,0.00,,,0.00,0,Wunderground v.1.15,2013-09-01 00:26:00,
2013-08-31 20:31:00,77.1,71.2,29.74,WSW,251,0.0,0.0,82,0.00,,,0.00,0,Wunderground v.1.15,2013-09-01 00:31:00,
2013-08-31 20:37:00,77.1,71.5,29.74,WSW,249,0.0,0.0,83,0.00,,,0.00,0,Wunderground v.1.15,2013-09-01 00:37:00,
2013-08-31 20:43:00,77.0,71.4,29.74,WSW,250,0.0,0.0,83,0.00,,,0.00,0,Wunderground v.1.15,2013-09-01 00:43:00,
2013-08-31 20:48:00,76.9,71.3,29.74,WSW,249,0.0,0.0,83,0.00,,,0.00,0,Wunderground v.1.15,2013-09-01 00:48:00,
2013-08-31 20:54:00,76.7,71.1,29.74,WSW,249,0.0,0.0,83,0.00,,,0.00,0,Wunderground v.1.15,2013-09-01 00:54:00,
2013-08-31 21:00:00,76.6,71.4,29.74,WSW,249,0.0,0.0,84,0.00,,,0.00,0,Wunderground v.1.15,2013-09-01 01:00:00,
2013-08-31 21:06:00,76.5,71.3,29.75,WSW,250,0.0,4.0,84,0.00,,,0.00,0,Wunderground v.1.15,2013-09-01 01:06:00,
2013-08-31 21:11:00,76.4,71.2,29.74,WSW,250,0.0,4.0,84,0.00,,,0.00,0,Wunderground v.1.15,2013-09-01 01:11:00,
2013-08-31 21:16:00,76.4,71.6,29.75,WSW,250,0.0,4.0,85,0.00,,,0.00,0,Wunderground v.1.15,2013-09-01 01:16:00,
2013-08-31 21:22:00,76.2,71.0,29.75,WSW,250,0.0,-999.0,85,-99.99,,,0.00,,weatherlink.com 1.10,2013-09-01 01:22:00,
2013-08-31 21:27:00,76.1,71.3,29.75,WSW,250,0.0,4.0,85,0.00,,,0.00,0,Wunderground v.1.15,2013-09-01 01:27:00,
2013-08-31 21:33:00,76.0,71.2,29.75,WSW,249,0.0,4.0,85,0.00,,,0.00,0,Wunderground v.1.15,2013-09-01 01:33:00,
2013-08-31 21:38:00,75.8,71.0,29.75,WSW,250,0.0,4.0,85,0.00,,,0.00,0,Wunderground v.1.15,2013-09-01 01:38:00,
2013-08-31 21:44:00,75.7,71.2,29.75,WSW,250,0.0,4.0,86,0.00,,,0.00,0,Wunderground v.1.15,2013-09-01 01:44:00,
2013-08-31 21:49:00,75.6,71.1,29.75,WSW,250,0.0,4.0,86,0.00,,,0.00,0,Wunderground v.1.15,2013-09-01 01:49:00,
2013-08-31 21:55:00,75.4,70.9,29.75,WSW,250,0.0,4.0,86,0.00,,,0.00,0,Wunderground v.1.15,2013-09-01 01:55:00,
2013-08-31 22:00:00,75.2,70.7,29.75,SSW,202,0.0,0.0,86,0.00,,,0.00,0,Wunderground v.1.15,2013-09-01 02:00:00,
2013-08-31 22:06:00,75.0,70.5,29.75,SSW,202,0.0,5.0,86,0.00,,,0.00,0,Wunderground v.1.15,2013-09-01 02:06:00,
2013-08-31 22:12:00,74.9,70.1,29.76,SW,226,2.0,2.0,85,0.00,,,0.00,0,Wunderground v.1.15,2013-09-01 02:12:00,
2013-08-31 22:18:00,74.8,70.0,29.76,SW,221,2.0,3.0,85,0.00,,,0.00,0,Wunderground v.1.15,2013-09-01 02:18:00,
2013-08-31 22:24:00,74.7,70.2,29.76,SW,227,1.0,2.0,86,0.00,,,0.00,0,Wunderground v.1.15,2013-09-01 02:24:00,
2013-08-31 22:30:00,74.7,70.2,29.77,West,267,0.0,0.0,86,0.00,,,0.00,0,Wunderground v.1.15,2013-09-01 02:30:00,
2013-08-31 22:35:00,74.8,70.3,29.77,NW,317,2.0,5.0,86,0.00,,,0.00,0,Wunderground v.1.15,2013-09-01 02:35:00,
2013-08-31 22:41:00,74.8,70.3,29.76,West,263,3.0,3.0,86,0.00,,,0.00,0,Wunderground v.1.15,2013-09-01 02:41:00,
2013-08-31 22:47:00,74.8,70.3,29.77,WNW,295,1.0,3.0,86,0.00,,,0.00,0,Wunderground v.1.15,2013-09-01 02:47:00,
2013-08-31 22:53:00,74.8,70.3,29.76,WSW,258,2.0,7.0,86,0.00,,,0.00,0,Wunderground v.1.15,2013-09-01 02:53:00,
2013-08-31 22:59:00,74.6,70.5,29.76,SSW,194,4.0,7.0,87,0.39,,,0.03,0,Wunderground v.1.15,2013-09-01 02:59:00,
2013-08-31 23:05:00,73.9,69.8,29.75,SSW,200,3.0,7.0,87,0.13,,,0.04,0,Wunderground v.1.15,2013-09-01 03:05:00,
2013-08-31 23:11:00,73.4,69.0,29.74,SSW,202,2.0,7.0,86,0.06,,,0.04,0,Wunderground v.1.15,2013-09-01 03:11:00,
2013-08-31 23:16:00,73.1,69.0,29.74,SSW,202,1.0,7.0,87,0.04,,,0.04,0,Wunderground v.1.15,2013-09-01 03:16:00,
2013-08-31 23:22:00,72.8,69.0,29.74,SSW,202,0.0,7.0,88,0.00,,,0.04,0,Wunderground v.1.15,2013-09-01 03:22:00,
2013-08-31 23:28:00,72.5,69.1,29.74,SSW,202,0.0,7.0,89,0.00,,,0.04,0,Wunderground v.1.15,2013-09-01 03:28:00,
2013-08-31 23:34:00,72.3,68.5,29.74,SSW,202,0.0,7.0,88,0.00,,,0.04,0,Wunderground v.1.15,2013-09-01 03:34:00,
2013-08-31 23:39:00,72.2,68.8,29.75,SSW,202,0.0,7.0,89,0.00,,,0.04,0,Wunderground v.1.15,2013-09-01 03:39:00,
2013-08-31 23:48:00,72.1,68.7,29.75,SSW,202,0.0,7.0,89,0.00,,,0.04,0,Wunderground v.1.15,2013-09-01 03:48:00,
2013-08-31 23:54:00,72.0,68.9,29.75,SSW,202,0.0,7.0,90,0.00,,,0.04,0,Wunderground v.1.15,2013-09-01 03:54:00,